Flag for Honduras Weather past 2 weeks in Tegucigalpa, Honduras

Now
68 °F

Scattered clouds.


Feels Like: 68 °F
Forecast: 64 / 87 °F
Wind: 3 mph from North

Location: Tegucigalpa Airport

Current Time: Aug 22, 2014 at 8:03:06 AM

Latest Report: Aug 22, 2014 at 7:00 AM


Visibility: N/A

Pressure: 30.12 "Hg

Humidity: 94%

Dew point: 66 °F

Location of TegucigalpaLocation

Historic Weather in Tegucigalpa — Graph

°F

Tegucigalpa temperature yesterday

Maximum temperature yesterday: 86 °F (at 2:00 PM)
Minimum temperature yesterday: 66 °F (at 6:00 AM)
Average temperature yesterday: 75 °F

Past Weeks' High & Low Weather Summary

 TemperatureHumidityPressure
High91 °F (Aug 8, 2:00 PM)100% (Aug 9, 11:00 PM)30.18 "Hg (Aug 9, 11:00 PM)
Low61 °F (Aug 13, 4:00 AM)22% (Aug 16, 5:05 PM)30.01 "Hg (Aug 7, 4:00 PM)
Average74 °F73%30.10 "Hg
* Reported Aug 7 7:00 AM — Aug 22 7:00 AM, Tegucigalpa, Weather by CustomWeather, © 2014

Note: Actual official high and low records may vary slightly from our data, if they occured in-between our weather recording intervals... More about our weather records

Advertising

Tegucigalpa weather history for previous 24 hours

 ConditionsComfort  
Time TempWeatherWind HumidityBarometerVisibility
7:00 AM
Aug 22
68 °FScattered clouds.3 mph94%30.12 "HgN/A
6:00 AM61 °FScattered clouds.No wind100%30.12 "Hg5 mi
5:00 AM61 °FPassing clouds.No wind94%30.09 "HgN/A
4:00 AM61 °FPassing clouds.No wind100%30.09 "HgN/A
3:00 AM63 °FPassing clouds.No wind94%30.09 "HgN/A
2:00 AM64 °FPassing clouds.2 mph88%30.12 "HgN/A
1:00 AM66 °FPassing clouds.No wind83%30.12 "HgN/A
12:00 AM68 °FPassing clouds.3 mph83%30.15 "HgN/A
11:00 PM
Aug 21
70 °FPassing clouds.No wind78%30.15 "HgN/A
10:00 PM72 °FPassing clouds.No wind73%30.15 "HgN/A
9:00 PM73 °FPassing clouds.No wind69%30.12 "HgN/A
8:00 PM75 °FPassing clouds.6 mph61%30.12 "HgN/A
7:00 PM77 °FPartly cloudy.5 mph57%30.01 "HgN/A
6:00 PM79 °FBroken clouds.5 mph54%30.07 "HgN/A
5:00 PM82 °FScattered clouds.No wind48%30.07 "HgN/A
4:00 PM81 °FPartly sunny.6 mph48%30.07 "HgN/A
3:00 PM84 °FBroken clouds.6 mph37%30.07 "HgN/A
2:00 PM86 °FBroken clouds.6 mph38%30.09 "HgN/A
1:00 PM84 °FScattered clouds.7 mph40%30.12 "HgN/A
12:00 PM82 °FPartly sunny.9 mph42%30.15 "HgN/A
11:00 AM81 °FBroken clouds.9 mph45%30.15 "HgN/A
10:00 AM79 °FBroken clouds.8 mph51%30.15 "HgN/A
9:00 AM77 °FBroken clouds.6 mph69%30.15 "HgN/A
8:00 AM72 °FBroken clouds.8 mph83%30.12 "HgN/A
Weather by CustomWeather, © 2014

See weather overviewHow to use our weather pages